Location: Akron Fire Department Station 11
(41.1400°N, 81.5503°W)
Time: 19:48:02
(UTC+00:00)

Envisat - Visible Passes

Search period start: 28 September 2020 00:00
Search period end: 08 October 2020 00:00
Orbit: 764 x 766 km, 98.1° (Epoch: 28 September)

Date Brightness Start Highest point End Pass type
(mag) Time Alt. Az. Time Alt. Az. Time Alt. Az.
28 Sep 6.5 10:04:11 10° ENE 10:05:38 11° E 10:07:04 10° ESE visible
29 Sep 6.2 23:59:05 10° SW 00:02:11 16° W 00:05:18 10° NW visible
30 Sep 6.0 10:27:38 10° NE 10:31:22 20° E 10:35:05 10° SE visible
02 Oct 5.0 10:52:20 10° NNE 10:57:00 35° E 11:01:37 10° SSE visible
02 Oct 6.0 23:46:58 10° SW 23:50:43 21° W 23:54:29 10° NW visible
03 Oct 6.2 10:16:49 10° NE 10:19:54 16° E 10:22:57 10° SE visible
05 Oct 6.6 00:14:53 10° WSW 00:16:26 11° W 00:17:59 10° WNW visible
05 Oct 5.4 10:41:13 10° NE 10:45:33 28° E 10:49:52 10° SSE visible
05 Oct 5.6 23:35:03 10° SSW 23:39:15 26° W 23:43:29 10° NW visible
06 Oct 6.4 10:06:21 10° ENE 10:08:23 12° E 10:10:26 10° ESE visible
